WAT2918 SGAS-SAEZ

Flight info

Callsign WAT2918
Flight time 1h 28m
Altitude 34000
Route ITAPE ASATI UP526 GEMSU UN785 GUA UZ129 PAGON PAGON7X
Aircraft A339/H-SADE1E2E3GHIJ3J5M1P2RWXY/LB2D1

Departure

Time 2026-04-23 17:30
Airport Silvio Pettirossi International Airport (SGAS)

Arrival

Time 2026-04-23 18:59
Airport Ezeiza International Airport - Ministro Pistarini (SAEZ)
Time Latitude Longitude Altitude Speed Heading
2026-04-23 17:19 -25.24297 -57.51514 304 ft 0 kts 105°
2026-04-23 17:21 -25.24297 -57.51515 304 ft 0 kts 105°
2026-04-23 17:22 -25.24294 -57.51526 303 ft 2 kts 102°
2026-04-23 17:22 -25.24286 -57.51558 302 ft 2 kts 118°
2026-04-23 17:23 -25.24268 -57.51584 300 ft 2 kts 139°
2026-04-23 17:23 -25.24256 -57.51594 299 ft 2 kts 148°
2026-04-23 17:23 -25.24229 -57.51607 298 ft 2 kts 168°
2026-04-23 17:24 -25.24214 -57.51609 297 ft 2 kts 179°
2026-04-23 17:24 -25.24199 -57.51609 297 ft 2 kts 188°
2026-04-23 17:24 -25.24188 -57.51607 297 ft 0 kts 193°
2026-04-23 17:25 -25.24192 -57.51608 297 ft 1 kts 194°
2026-04-23 17:26 -25.24269 -57.51638 297 ft 9 kts 201°
2026-04-23 17:26 -25.24401 -57.51759 295 ft 15 kts 236°
2026-04-23 17:27 -25.24617 -57.51850 297 ft 17 kts 193°
2026-04-23 17:27 -25.24735 -57.51880 299 ft 17 kts 192°
2026-04-23 17:27 -25.24861 -57.51908 301 ft 18 kts 191°
2026-04-23 17:27 -25.24986 -57.51937 304 ft 18 kts 193°
2026-04-23 17:28 -25.25109 -57.51968 308 ft 17 kts 193°
2026-04-23 17:28 -25.25229 -57.51997 310 ft 18 kts 192°
2026-04-23 17:28 -25.25356 -57.52027 312 ft 18 kts 192°
2026-04-23 17:28 -25.25462 -57.52066 315 ft 14 kts 230°
2026-04-23 17:29 -25.25477 -57.52168 312 ft 15 kts 282°
2026-04-23 17:29 -25.25423 -57.52252 307 ft 14 kts 347°
2026-04-23 17:29 -25.25204 -57.52212 302 ft 62 kts 15°
2026-04-23 17:30 -25.24512 -57.52029 290 ft 137 kts 14°
2026-04-23 17:30 -25.22184 -57.51489 1308 ft 174 kts 13°
2026-04-23 17:30 -25.21034 -57.51207 1945 ft 170 kts 13°
2026-04-23 17:31 -25.19835 -57.50914 2334 ft 182 kts 12°
2026-04-23 17:31 -25.18526 -57.50597 2648 ft 200 kts 12°
2026-04-23 17:31 -25.17111 -57.50255 2992 ft 218 kts 12°
2026-04-23 17:31 -25.15553 -57.49878 3377 ft 236 kts 12°
2026-04-23 17:32 -25.13907 -57.49456 3789 ft 253 kts 18°
2026-04-23 17:32 -25.12402 -57.48411 4414 ft 264 kts 46°
2026-04-23 17:32 -25.11497 -57.46646 5179 ft 271 kts 72°
2026-04-23 17:32 -25.11427 -57.44545 5890 ft 282 kts 100°
2026-04-23 17:33 -25.12297 -57.42610 6570 ft 292 kts 130°
2026-04-23 17:33 -25.13997 -57.41342 7254 ft 299 kts 162°
2026-04-23 17:33 -25.16083 -57.41198 7930 ft 300 kts 192°
2026-04-23 17:33 -25.18104 -57.41729 8610 ft 303 kts 194°
2026-04-23 17:34 -25.20186 -57.42252 9278 ft 307 kts 194°
2026-04-23 17:34 -25.22277 -57.42766 9967 ft 309 kts 194°
2026-04-23 17:34 -25.26613 -57.43817 10858 ft 333 kts 194°
2026-04-23 17:35 -25.28931 -57.44373 11151 ft 350 kts 194°
2026-04-23 17:35 -25.33920 -57.45577 12038 ft 371 kts 194°
2026-04-23 17:35 -25.36460 -57.46184 12727 ft 373 kts 194°
2026-04-23 17:36 -25.39003 -57.46786 13449 ft 375 kts 194°
2026-04-23 17:36 -25.41611 -57.47155 14071 ft 381 kts 179°
2026-04-23 17:36 -25.44245 -57.46625 14674 ft 386 kts 164°
2026-04-23 17:36 -25.46787 -57.45685 15284 ft 390 kts 162°
2026-04-23 17:37 -25.49398 -57.44694 15845 ft 394 kts 162°
2026-04-23 17:37 -25.52032 -57.43757 16438 ft 397 kts 164°
2026-04-23 17:37 -25.57485 -57.42720 17559 ft 401 kts 183°
2026-04-23 17:38 -25.60249 -57.43045 18137 ft 402 kts 193°
2026-04-23 17:38 -25.63044 -57.43626 18704 ft 405 kts 194°
2026-04-23 17:38 -25.65811 -57.44236 19239 ft 409 kts 195°
2026-04-23 17:38 -25.68637 -57.44860 19788 ft 412 kts 195°
2026-04-23 17:39 -25.71478 -57.45477 20331 ft 415 kts 195°
2026-04-23 17:39 -25.74327 -57.46090 20871 ft 417 kts 195°
2026-04-23 17:39 -25.77213 -57.46708 21399 ft 419 kts 195°
2026-04-23 17:39 -25.80123 -57.47329 21899 ft 422 kts 195°
2026-04-23 17:40 -25.83025 -57.47947 22356 ft 425 kts 195°
2026-04-23 17:40 -25.85941 -57.48568 22842 ft 428 kts 196°
2026-04-23 17:40 -25.88873 -57.49192 23307 ft 430 kts 196°
2026-04-23 17:40 -25.91846 -57.49826 23768 ft 433 kts 196°
2026-04-23 17:41 -25.94840 -57.50465 24230 ft 436 kts 196°
2026-04-23 17:41 -26.00834 -57.51745 25124 ft 441 kts 197°
2026-04-23 17:41 -26.03884 -57.52393 25554 ft 444 kts 196°
2026-04-23 17:42 -26.10110 -57.53250 26395 ft 454 kts 189°
2026-04-23 17:42 -26.13296 -57.53380 26773 ft 459 kts 187°
2026-04-23 17:42 -26.16502 -57.53423 27148 ft 462 kts 186°
2026-04-23 17:43 -26.19716 -57.53451 27549 ft 464 kts 186°
2026-04-23 17:43 -26.22984 -57.53478 27926 ft 467 kts 187°
2026-04-23 17:43 -26.26252 -57.53506 28306 ft 469 kts 186°
2026-04-23 17:43 -26.29566 -57.53538 28644 ft 473 kts 187°
2026-04-23 17:44 -26.32901 -57.53572 29031 ft 475 kts 187°
2026-04-23 17:44 -26.36224 -57.53608 29409 ft 476 kts 187°
2026-04-23 17:44 -26.42917 -57.53678 30155 ft 480 kts 187°
2026-04-23 17:45 -26.46298 -57.53714 30506 ft 482 kts 187°
2026-04-23 17:45 -26.53056 -57.53785 31309 ft 484 kts 187°
2026-04-23 17:45 -26.56403 -57.53820 31822 ft 481 kts 187°
2026-04-23 17:46 -26.63122 -57.53891 32763 ft 478 kts 187°
2026-04-23 17:46 -26.66449 -57.53929 33133 ft 480 kts 188°
2026-04-23 17:46 -26.69813 -57.53967 33481 ft 482 kts 188°
2026-04-23 17:47 -26.73180 -57.54006 33852 ft 483 kts 188°
2026-04-23 17:47 -26.76526 -57.54046 33955 ft 483 kts 188°
2026-04-23 17:48 -26.86654 -57.54166 33961 ft 482 kts 188°
2026-04-23 17:48 -26.93438 -57.54346 33958 ft 481 kts 189°
2026-04-23 17:49 -27.00159 -57.54551 33965 ft 482 kts 189°
2026-04-23 17:49 -27.06948 -57.54752 33961 ft 481 kts 189°
2026-04-23 17:50 -27.13665 -57.54950 33970 ft 483 kts 189°
2026-04-23 17:50 -27.23794 -57.55247 33972 ft 482 kts 188°
2026-04-23 17:51 -27.30548 -57.55446 33975 ft 483 kts 189°
2026-04-23 17:52 -27.40639 -57.55745 33984 ft 484 kts 188°
2026-04-23 17:52 -27.50767 -57.56110 33995 ft 483 kts 189°
2026-04-23 17:53 -27.60905 -57.56535 34002 ft 486 kts 190°
2026-04-23 17:54 -27.67709 -57.56817 34005 ft 485 kts 189°
2026-04-23 17:54 -27.77856 -57.57238 34008 ft 486 kts 190°
2026-04-23 17:55 -27.87997 -57.57658 34008 ft 486 kts 190°
2026-04-23 17:56 -27.94775 -57.57939 34014 ft 487 kts 190°
2026-04-23 17:56 -28.05091 -57.58378 34014 ft 502 kts 189°
2026-04-23 17:57 -28.12186 -57.58678 34004 ft 509 kts 189°
2026-04-23 17:58 -28.22804 -57.59089 34011 ft 508 kts 189°
2026-04-23 17:58 -28.29965 -57.59245 34017 ft 512 kts 188°
2026-04-23 17:59 -28.37127 -57.59394 34022 ft 513 kts 188°
2026-04-23 17:59 -28.44280 -57.59553 34020 ft 514 kts 188°
2026-04-23 18:00 -28.51436 -57.59723 34025 ft 516 kts 188°
2026-04-23 18:00 -28.58599 -57.59889 34027 ft 514 kts 189°
2026-04-23 18:01 -28.65806 -57.60062 34031 ft 515 kts 189°
2026-04-23 18:01 -28.72987 -57.60230 34030 ft 517 kts 188°
2026-04-23 18:02 -28.80204 -57.60403 34035 ft 518 kts 188°
2026-04-23 18:02 -28.87421 -57.60575 34037 ft 519 kts 188°
2026-04-23 18:03 -28.94643 -57.60747 34039 ft 517 kts 189°
2026-04-23 18:03 -29.01853 -57.60925 34038 ft 520 kts 188°
2026-04-23 18:04 -29.09111 -57.61097 34049 ft 519 kts 189°
2026-04-23 18:04 -29.16329 -57.61268 34046 ft 519 kts 188°
2026-04-23 18:05 -29.23546 -57.61448 34042 ft 519 kts 189°
2026-04-23 18:05 -29.30798 -57.61611 34050 ft 522 kts 188°
2026-04-23 18:06 -29.38042 -57.61762 34050 ft 519 kts 188°
2026-04-23 18:06 -29.45288 -57.61921 34055 ft 520 kts 188°
2026-04-23 18:07 -29.52542 -57.62088 34057 ft 523 kts 189°
2026-04-23 18:07 -29.59817 -57.62257 34054 ft 521 kts 188°
2026-04-23 18:08 -29.65850 -57.62398 34049 ft 525 kts 188°
2026-04-23 18:08 -29.74395 -57.62590 34049 ft 524 kts 188°
2026-04-23 18:09 -29.81717 -57.62761 34048 ft 526 kts 188°
2026-04-23 18:09 -29.89057 -57.62929 34049 ft 527 kts 189°
2026-04-23 18:10 -29.96356 -57.63094 34055 ft 523 kts 189°
2026-04-23 18:10 -30.03628 -57.63268 34050 ft 524 kts 189°
2026-04-23 18:11 -30.11012 -57.63446 34050 ft 529 kts 188°
2026-04-23 18:11 -30.18326 -57.63612 34057 ft 527 kts 190°
2026-04-23 18:12 -30.25580 -57.64281 34052 ft 517 kts 197°
2026-04-23 18:12 -30.32632 -57.65868 34056 ft 508 kts 203°
2026-04-23 18:13 -30.39386 -57.68140 34062 ft 505 kts 206°
2026-04-23 18:13 -30.46128 -57.70532 34058 ft 508 kts 207°
2026-04-23 18:14 -30.52916 -57.72932 34060 ft 510 kts 206°
2026-04-23 18:14 -30.59653 -57.75297 34067 ft 509 kts 206°
2026-04-23 18:15 -30.66440 -57.77676 34065 ft 507 kts 207°
2026-04-23 18:15 -30.73205 -57.80041 34065 ft 509 kts 207°
2026-04-23 18:16 -30.80015 -57.82394 34071 ft 511 kts 207°
2026-04-23 18:16 -30.86826 -57.84761 34073 ft 510 kts 207°
2026-04-23 18:17 -30.97009 -57.88316 34077 ft 510 kts 207°
2026-04-23 18:17 -31.03828 -57.90699 34083 ft 511 kts 207°
2026-04-23 18:18 -31.10655 -57.93102 34074 ft 511 kts 207°
2026-04-23 18:18 -31.17431 -57.95480 34083 ft 510 kts 208°
2026-04-23 18:19 -31.24273 -57.97888 34101 ft 512 kts 208°
2026-04-23 18:19 -31.31076 -58.00285 34106 ft 512 kts 208°
2026-04-23 18:20 -31.37875 -58.02688 34105 ft 512 kts 208°
2026-04-23 18:20 -31.44680 -58.05092 34106 ft 511 kts 208°
2026-04-23 18:21 -31.51491 -58.07503 34107 ft 510 kts 208°
2026-04-23 18:21 -31.58323 -58.09927 34098 ft 511 kts 208°
2026-04-23 18:22 -31.65142 -58.12345 34093 ft 512 kts 208°
2026-04-23 18:22 -31.71977 -58.14775 34097 ft 510 kts 208°
2026-04-23 18:23 -31.82210 -58.18429 34096 ft 513 kts 208°
2026-04-23 18:24 -31.92438 -58.22076 34096 ft 510 kts 208°
2026-04-23 18:25 -32.02597 -58.25715 34109 ft 512 kts 208°
2026-04-23 18:25 -32.09464 -58.28185 34106 ft 513 kts 208°
2026-04-23 18:26 -32.16311 -58.30651 34107 ft 515 kts 208°
2026-04-23 18:26 -32.23151 -58.33114 34106 ft 513 kts 208°
2026-04-23 18:27 -32.29968 -58.35576 34117 ft 512 kts 208°
2026-04-23 18:27 -32.36764 -58.38019 34107 ft 512 kts 208°
2026-04-23 18:28 -32.43601 -58.40477 34116 ft 510 kts 208°
2026-04-23 18:28 -32.50375 -58.42923 34112 ft 510 kts 208°
2026-04-23 18:29 -32.57153 -58.45379 34119 ft 509 kts 208°
2026-04-23 18:29 -32.63909 -58.47831 34104 ft 509 kts 208°
2026-04-23 18:30 -32.70721 -58.50310 34119 ft 509 kts 208°
2026-04-23 18:30 -32.77433 -58.52753 33647 ft 503 kts 208°
2026-04-23 18:30 -32.80777 -58.53982 32827 ft 506 kts 207°
2026-04-23 18:31 -32.84154 -58.55226 32050 ft 508 kts 207°
2026-04-23 18:31 -32.87492 -58.56448 31340 ft 508 kts 207°
2026-04-23 18:31 -32.90889 -58.57691 30613 ft 508 kts 206°
2026-04-23 18:31 -32.94244 -58.58919 29850 ft 508 kts 206°
2026-04-23 18:32 -32.97650 -58.60148 29424 ft 503 kts 205°
2026-04-23 18:32 -33.01046 -58.61123 28946 ft 505 kts 200°
2026-04-23 18:32 -33.04498 -58.61793 28477 ft 505 kts 195°
2026-04-23 18:32 -33.07980 -58.62241 28042 ft 501 kts 193°
2026-04-23 18:33 -33.11441 -58.62630 27584 ft 495 kts 193°
2026-04-23 18:33 -33.14822 -58.63000 27095 ft 491 kts 193°
2026-04-23 18:33 -33.18239 -58.63379 26611 ft 486 kts 193°
2026-04-23 18:33 -33.21566 -58.63751 26193 ft 479 kts 193°
2026-04-23 18:34 -33.24880 -58.64131 25700 ft 474 kts 193°
2026-04-23 18:34 -33.28145 -58.64507 25246 ft 469 kts 193°
2026-04-23 18:34 -33.31352 -58.64879 24790 ft 461 kts 193°
2026-04-23 18:34 -33.34537 -58.65247 23723 ft 452 kts 193°
2026-04-23 18:35 -33.37614 -58.65607 22797 ft 440 kts 193°
2026-04-23 18:35 -33.40580 -58.65948 22420 ft 418 kts 193°
2026-04-23 18:35 -33.43483 -58.66288 22177 ft 417 kts 193°
2026-04-23 18:35 -33.46345 -58.66627 21863 ft 414 kts 193°
2026-04-23 18:36 -33.49208 -58.66967 21549 ft 411 kts 193°
2026-04-23 18:36 -33.52050 -58.67303 21246 ft 407 kts 193°
2026-04-23 18:36 -33.54875 -58.67635 20894 ft 404 kts 193°
2026-04-23 18:36 -33.57656 -58.67963 20552 ft 401 kts 192°
2026-04-23 18:37 -33.60425 -58.68288 20199 ft 398 kts 192°
2026-04-23 18:37 -33.63159 -58.68610 19868 ft 394 kts 192°
2026-04-23 18:37 -33.65892 -58.68932 19556 ft 391 kts 192°
2026-04-23 18:37 -33.68568 -58.69247 19217 ft 388 kts 192°
2026-04-23 18:38 -33.71246 -58.69562 18877 ft 385 kts 192°
2026-04-23 18:38 -33.73933 -58.69878 18495 ft 383 kts 191°
2026-04-23 18:38 -33.76531 -58.70187 18130 ft 380 kts 191°
2026-04-23 18:38 -33.79169 -58.70496 17794 ft 375 kts 191°
2026-04-23 18:39 -33.81794 -58.70808 17475 ft 371 kts 191°
2026-04-23 18:39 -33.84347 -58.71110 17120 ft 369 kts 191°
2026-04-23 18:39 -33.86887 -58.71413 16757 ft 366 kts 190°
2026-04-23 18:39 -33.89434 -58.71715 16392 ft 363 kts 190°
2026-04-23 18:40 -33.91941 -58.72011 16073 ft 363 kts 190°
2026-04-23 18:40 -33.94475 -58.72287 15691 ft 363 kts 189°
2026-04-23 18:40 -33.97001 -58.72541 15306 ft 361 kts 188°
2026-04-23 18:40 -33.99517 -58.72796 14942 ft 359 kts 188°
2026-04-23 18:41 -34.01996 -58.73045 14567 ft 357 kts 188°
2026-04-23 18:41 -34.04446 -58.73296 14201 ft 354 kts 188°
2026-04-23 18:41 -34.06927 -58.73550 13829 ft 352 kts 188°
2026-04-23 18:41 -34.09352 -58.73800 13460 ft 350 kts 187°
2026-04-23 18:42 -34.11772 -58.74051 13110 ft 348 kts 187°
2026-04-23 18:42 -34.14196 -58.74301 12747 ft 346 kts 187°
2026-04-23 18:42 -34.16585 -58.74548 12385 ft 344 kts 187°
2026-04-23 18:42 -34.18964 -58.74797 12019 ft 343 kts 187°
2026-04-23 18:43 -34.21354 -58.75045 11642 ft 341 kts 187°
2026-04-23 18:43 -34.23717 -58.75290 11253 ft 340 kts 187°
2026-04-23 18:43 -34.26065 -58.75535 10856 ft 339 kts 187°
2026-04-23 18:43 -34.28405 -58.75777 10561 ft 336 kts 187°
2026-04-23 18:44 -34.30688 -58.76002 10288 ft 316 kts 183°
2026-04-23 18:44 -34.32801 -58.75835 10254 ft 293 kts 171°
2026-04-23 18:44 -34.34755 -58.75199 10229 ft 283 kts 163°
2026-04-23 18:44 -34.36589 -58.74384 10208 ft 277 kts 161°
2026-04-23 18:45 -34.38370 -58.73565 10184 ft 273 kts 161°
2026-04-23 18:45 -34.40149 -58.72744 10067 ft 274 kts 161°
2026-04-23 18:45 -34.41947 -58.71923 9779 ft 276 kts 161°
2026-04-23 18:45 -34.43765 -58.71097 9500 ft 277 kts 162°
2026-04-23 18:46 -34.45564 -58.70280 9225 ft 277 kts 161°
2026-04-23 18:46 -34.47368 -58.69460 8951 ft 276 kts 161°
2026-04-23 18:46 -34.49188 -58.68632 8671 ft 276 kts 161°
2026-04-23 18:46 -34.50993 -58.67814 8398 ft 275 kts 161°
2026-04-23 18:47 -34.52774 -58.67007 8132 ft 274 kts 161°
2026-04-23 18:47 -34.54554 -58.66200 7870 ft 273 kts 161°
2026-04-23 18:47 -34.56356 -58.65380 7602 ft 273 kts 161°
2026-04-23 18:47 -34.58134 -58.64574 7338 ft 272 kts 161°
2026-04-23 18:48 -34.59918 -58.63764 7081 ft 271 kts 161°
2026-04-23 18:48 -34.61690 -58.62960 6816 ft 270 kts 161°
2026-04-23 18:48 -34.63464 -58.62154 6556 ft 269 kts 161°
2026-04-23 18:48 -34.65205 -58.61360 6303 ft 269 kts 161°
2026-04-23 18:49 -34.66975 -58.60554 6051 ft 267 kts 161°
2026-04-23 18:49 -34.68720 -58.59759 5801 ft 266 kts 161°
2026-04-23 18:49 -34.70475 -58.58962 5556 ft 264 kts 161°
2026-04-23 18:49 -34.72200 -58.58177 5317 ft 263 kts 161°
2026-04-23 18:50 -34.73338 -58.57658 5212 ft 258 kts 161°
2026-04-23 18:50 -34.75517 -58.56665 5183 ft 241 kts 161°
2026-04-23 18:50 -34.77052 -58.55962 5183 ft 228 kts 161°
2026-04-23 18:50 -34.78497 -58.55302 5190 ft 213 kts 161°
2026-04-23 18:51 -34.79841 -58.54688 5193 ft 198 kts 162°
2026-04-23 18:51 -34.81100 -58.54111 5183 ft 184 kts 162°
2026-04-23 18:51 -34.82291 -58.53570 5188 ft 181 kts 164°
2026-04-23 18:51 -34.83487 -58.53091 5046 ft 183 kts 165°
2026-04-23 18:52 -34.84712 -58.52620 4734 ft 187 kts 165°
2026-04-23 18:52 -34.85971 -58.52136 4436 ft 189 kts 164°
2026-04-23 18:52 -34.87225 -58.51649 4153 ft 191 kts 164°
2026-04-23 18:52 -34.88498 -58.51155 3872 ft 192 kts 164°
2026-04-23 18:53 -34.89774 -58.50658 3603 ft 192 kts 163°
2026-04-23 18:53 -34.91051 -58.50160 3332 ft 193 kts 163°
2026-04-23 18:53 -34.92345 -58.49654 3059 ft 193 kts 163°
2026-04-23 18:53 -34.93630 -58.49154 2791 ft 194 kts 163°
2026-04-23 18:54 -34.94895 -58.48661 2561 ft 192 kts 162°
2026-04-23 18:54 -34.96146 -58.48076 2360 ft 187 kts 145°
2026-04-23 18:54 -34.96790 -58.46836 2308 ft 170 kts 94°
2026-04-23 18:54 -34.96417 -58.45597 2282 ft 152 kts 37°
2026-04-23 18:55 -34.95429 -58.45343 2309 ft 153 kts 341°
2026-04-23 18:55 -34.94680 -58.46222 2343 ft 155 kts 297°
2026-04-23 18:55 -34.94170 -58.47375 2352 ft 154 kts 308°
2026-04-23 18:55 -34.93420 -58.48310 2339 ft 150 kts 323°
2026-04-23 18:56 -34.92842 -58.48784 2199 ft 150 kts 331°
2026-04-23 18:56 -34.91594 -58.49491 1909 ft 147 kts 340°
2026-04-23 18:56 -34.90641 -58.49910 1717 ft 143 kts 342°
2026-04-23 18:56 -34.89697 -58.50301 1512 ft 142 kts 343°
2026-04-23 18:57 -34.88755 -58.50652 1291 ft 141 kts 345°
2026-04-23 18:57 -34.87800 -58.50981 1064 ft 141 kts 345°
2026-04-23 18:57 -34.86869 -58.51299 858 ft 139 kts 345°
2026-04-23 18:57 -34.85922 -58.51627 637 ft 139 kts 344°
2026-04-23 18:58 -34.84993 -58.51949 442 ft 139 kts 344°
2026-04-23 18:58 -34.84056 -58.52275 241 ft 140 kts 345°
2026-04-23 18:58 -34.83126 -58.52578 89 ft 139 kts 345°
2026-04-23 18:58 -34.82277 -58.52884 79 ft 106 kts 343°
2026-04-23 18:59 -34.81706 -58.53091 76 ft 62 kts 343°
2026-04-23 18:59 -34.81487 -58.53298 78 ft 29 kts 295°
2026-04-23 18:59 -34.81403 -58.53500 85 ft 23 kts 299°
2026-04-23 18:59 -34.81411 -58.53590 87 ft 9 kts 220°
2026-04-23 19:00 -34.81461 -58.53618 89 ft 7 kts 201°
2026-04-23 19:00 -34.81506 -58.53641 90 ft 6 kts 205°
2026-04-23 19:00 -34.81544 -58.53676 91 ft 7 kts 225°
2026-04-23 19:00 -34.81584 -58.53725 91 ft 8 kts 225°
2026-04-23 19:01 -34.81607 -58.53791 92 ft 6 kts 279°
2026-04-23 19:01 -34.81574 -58.53829 93 ft 6 kts 343°
2026-04-23 19:01 -34.81530 -58.53846 94 ft 7 kts 345°
2026-04-23 19:01 -34.81500 -58.53854 94 ft 0 kts 349°